When you browse on this site, cookies collect data to enhance your experience and personalize the content and advertising you see.
Visit our Privacy Policy to learn more. By continuing to use the site, you agree to this use of cookies and data.
  • In Deutschland
  • Länderverzeichnis
  • Für 7 Tage
  • Wassertemperatur
  • Wetterkarte
  • Widgets
  • user-avatar
    Anmelden

    Stündliche Wetter Sydney

    Heute, 18 Oktober, Freitag

    Zeit Temperatur Niederschläge Wind Luftdruck Luftfeuchtigkeit
    00:00 +13°C° 0 mm 5 m/S 760 mmHg 40%
    01:00 +12°C° 0 mm 5 m/S 760 mmHg 42%
    02:00 +12°C° 0 mm 5 m/S 760 mmHg 44%
    03:00 +12°C° 0 mm 5 m/S 760 mmHg 47%
    04:00 +12°C° 0 mm 4 m/S 760 mmHg 52%
    05:00 +12°C° 0 mm 4 m/S 761 mmHg 50%
    06:00 +13°C° 0 mm 4 m/S 761 mmHg 48%
    07:00 +14°C° 0 mm 5 m/S 762 mmHg 46%
    08:00 +18°C° 0 mm 4 m/S 762 mmHg 40%
    09:00 +20°C° 0 mm 3 m/S 762 mmHg 34%
    10:00 +24°C° 0 mm 1 m/S 762 mmHg 27%
    11:00 +25°C° 0 mm 2 m/S 761 mmHg 24%
    12:00 +26°C° 0 mm 3 m/S 761 mmHg 21%
    13:00 +28°C° 0 mm 4 m/S 760 mmHg 18%
    14:00 +27°C° 0 mm 5 m/S 760 mmHg 20%
    15:00 +27°C° 0 mm 5 m/S 759 mmHg 23%
    16:00 +27°C° 0 mm 5 m/S 759 mmHg 20%
    17:00 +23°C° 0 mm 5 m/S 759 mmHg 28%
    18:00 +21°C° 0 mm 4 m/S 760 mmHg 35%
    19:00 +19°C° 0 mm 4 m/S 760 mmHg 43%
    20:00 +18°C° 0 mm 3 m/S 760 mmHg 42%
    21:00 +18°C° 0 mm 2 m/S 761 mmHg 41%
    22:00 +17°C° 0 mm 2 m/S 761 mmHg 40%
    23:00 +16°C° 0 mm 2 m/S 761 mmHg 40%

    Morgen, 19 Oktober, Samstag

    Zeit Temperatur Niederschläge Wind Luftdruck Luftfeuchtigkeit
    00:00 +14°C° 0 mm 3 m/S 761 mmHg 40%
    01:00 +14°C° 0 mm 3 m/S 760 mmHg 40%
    02:00 +13°C° 0 mm 3 m/S 760 mmHg 39%
    03:00 +13°C° 0 mm 3 m/S 760 mmHg 37%
    04:00 +13°C° 0 mm 3 m/S 760 mmHg 36%
    05:00 +14°C° 0 mm 4 m/S 760 mmHg 34%
    06:00 +15°C° 0 mm 4 m/S 760 mmHg 31%
    07:00 +16°C° 0 mm 5 m/S 760 mmHg 29%
    08:00 +20°C° 0 mm 4 m/S 760 mmHg 26%
    09:00 +23°C° 0 mm 4 m/S 760 mmHg 24%
    10:00 +27°C° 0 mm 3 m/S 759 mmHg 21%
    11:00 +28°C° 0 mm 4 m/S 759 mmHg 20%
    12:00 +29°C° 0 mm 5 m/S 758 mmHg 19%
    13:00 +29°C° 0 mm 6 m/S 758 mmHg 17%
    14:00 +28°C° 0 mm 6 m/S 757 mmHg 21%
    15:00 +27°C° 0 mm 6 m/S 757 mmHg 24%
    16:00 +26°C° 0 mm 6 m/S 757 mmHg 28%
    17:00 +23°C° 0 mm 6 m/S 758 mmHg 35%
    18:00 +21°C° 0 mm 6 m/S 759 mmHg 42%
    19:00 +19°C° 0 mm 6 m/S 761 mmHg 49%
    20:00 +17°C° 0 mm 6 m/S 761 mmHg 47%
    21:00 +15°C° 0 mm 6 m/S 762 mmHg 45%
    22:00 +14°C° 0 mm 7 m/S 763 mmHg 43%
    23:00 +13°C° 0 mm 6 m/S 763 mmHg 46%

    übermorgen, 20 Oktober, Sonntag

    Zeit Temperatur Niederschläge Wind Luftdruck Luftfeuchtigkeit
    00:00 +12°C° 0 mm 5 m/S 763 mmHg 49%
    01:00 +10°C° 0 mm 5 m/S 763 mmHg 52%
    02:00 +11°C° 0 mm 4 m/S 763 mmHg 54%
    03:00 +10°C° 0 mm 4 m/S 763 mmHg 55%
    04:00 +10°C° 0 mm 3 m/S 764 mmHg 57%
    05:00 +11°C° 0 mm 3 m/S 764 mmHg 54%
    06:00 +12°C° 0 mm 3 m/S 765 mmHg 52%
    07:00 +12°C° 0 mm 3 m/S 765 mmHg 49%
    08:00 +16°C° 0 mm 3 m/S 765 mmHg 42%
    09:00 +19°C° 0 mm 2 m/S 765 mmHg 35%
    10:00 +21°C° 0 mm 2 m/S 765 mmHg 28%
    11:00 +23°C° 0 mm 2 m/S 765 mmHg 27%
    12:00 +24°C° 0 mm 3 m/S 764 mmHg 26%
    13:00 +24°C° 0 mm 3 m/S 764 mmHg 24%
    14:00 +22°C° 0 mm 4 m/S 764 mmHg 31%
    15:00 +21°C° 0 mm 4 m/S 764 mmHg 37%
    16:00 +20°C° 0 mm 5 m/S 764 mmHg 44%
    17:00 +19°C° 0 mm 4 m/S 765 mmHg 53%
    18:00 +17°C° 0 mm 3 m/S 766 mmHg 62%
    19:00 +16°C° 0 mm 3 m/S 766 mmHg 70%
    20:00 +16°C° 0 mm 2 m/S 767 mmHg 70%
    21:00 +16°C° 0 mm 2 m/S 767 mmHg 70%
    22:00 +16°C° 0 mm 2 m/S 768 mmHg 71%
    23:00 +16°C° 0 mm 2 m/S 768 mmHg 69%

    21 Oktober, Montag

    Zeit Temperatur Niederschläge Wind Luftdruck Luftfeuchtigkeit
    00:00 +16°C° 0 mm 1 m/S 768 mmHg 68%
    01:00 +16°C° 0 mm 1 m/S 768 mmHg 67%
    02:00 +16°C° 0 mm 1 m/S 768 mmHg 69%
    03:00 +15°C° 0 mm 1 m/S 768 mmHg 70%
    04:00 +14°C° 0 mm 0 m/S 768 mmHg 71%
    05:00 +16°C° 0 mm 1 m/S 768 mmHg 68%
    06:00 +16°C° 0 mm 1 m/S 768 mmHg 65%
    07:00 +18°C° 0 mm 1 m/S 769 mmHg 62%
    08:00 +20°C° 0 mm 1 m/S 769 mmHg 54%
    09:00 +23°C° 0 mm 1 m/S 769 mmHg 46%
    10:00 +25°C° 0 mm 1 m/S 768 mmHg 38%
    11:00 +25°C° 0 mm 2 m/S 768 mmHg 36%
    12:00 +26°C° 0 mm 3 m/S 768 mmHg 35%
    13:00 +26°C° 0 mm 3 m/S 767 mmHg 33%
    14:00 +25°C° 0 mm 4 m/S 767 mmHg 37%
    15:00 +23°C° 0 mm 4 m/S 767 mmHg 42%
    16:00 +22°C° 0 mm 5 m/S 767 mmHg 46%
    17:00 +20°C° 0 mm 4 m/S 767 mmHg 52%
    18:00 +19°C° 0 mm 3 m/S 768 mmHg 59%
    19:00 +17°C° 0 mm 3 m/S 768 mmHg 66%
    20:00 +17°C° 0 mm 2 m/S 769 mmHg 68%
    21:00 +16°C° 0 mm 1 m/S 769 mmHg 71%
    22:00 +16°C° 0 mm 1 m/S 769 mmHg 74%
    23:00 +15°C° 0 mm 1 m/S 769 mmHg 76%

    22 Oktober, Dienstag

    Zeit Temperatur Niederschläge Wind Luftdruck Luftfeuchtigkeit
    00:00 +15°C° 0 mm 1 m/S 769 mmHg 78%
    01:00 +14°C° 0 mm 1 m/S 768 mmHg 81%
    02:00 +14°C° 0 mm 1 m/S 768 mmHg 82%
    03:00 +14°C° 0 mm 1 m/S 768 mmHg 83%
    04:00 +13°C° 0 mm 1 m/S 768 mmHg 84%
    05:00 +14°C° 0 mm 2 m/S 768 mmHg 78%
    06:00 +15°C° 0 mm 2 m/S 768 mmHg 73%
    07:00 +17°C° 0 mm 2 m/S 769 mmHg 67%
    08:00 +19°C° 0 mm 2 m/S 768 mmHg 58%
    09:00 +23°C° 0 mm 2 m/S 768 mmHg 49%
    10:00 +25°C° 0 mm 2 m/S 768 mmHg 40%
    11:00 +26°C° 0 mm 3 m/S 768 mmHg 39%
    12:00 +27°C° 0 mm 4 m/S 767 mmHg 38%
    13:00 +28°C° 0 mm 5 m/S 767 mmHg 37%
    14:00 +27°C° 0 mm 5 m/S 767 mmHg 41%
    15:00 +25°C° 0 mm 5 m/S 766 mmHg 46%
    16:00 +23°C° 0 mm 6 m/S 766 mmHg 51%
    17:00 +21°C° 0 mm 5 m/S 766 mmHg 58%
    18:00 +20°C° 0 mm 5 m/S 767 mmHg 65%
    19:00 +18°C° 0 mm 4 m/S 768 mmHg 72%
    20:00 +17°C° 0 mm 4 m/S 768 mmHg 75%
    21:00 +17°C° 0 mm 3 m/S 768 mmHg 78%
    22:00 +16°C° 0 mm 2 m/S 769 mmHg 82%
    23:00 +16°C° 0 mm 2 m/S 768 mmHg 83%

    23 Oktober, Mittwoch

    Zeit Temperatur Niederschläge Wind Luftdruck Luftfeuchtigkeit
    00:00 +15°C° 0 mm 2 m/S 768 mmHg 84%
    01:00 +15°C° 0 mm 2 m/S 768 mmHg 85%
    02:00 +15°C° 0 mm 2 m/S 768 mmHg 86%
    03:00 +14°C° 0 mm 2 m/S 767 mmHg 87%
    04:00 +14°C° 0 mm 2 m/S 767 mmHg 88%
    05:00 +15°C° 0 mm 2 m/S 767 mmHg 82%
    06:00 +16°C° 0 mm 2 m/S 768 mmHg 76%
    07:00 +17°C° 0 mm 2 m/S 768 mmHg 70%
    08:00 +20°C° 0 mm 2 m/S 767 mmHg 57%
    09:00 +24°C° 0 mm 3 m/S 767 mmHg 45%
    10:00 +26°C° 0 mm 4 m/S 767 mmHg 32%
    11:00 +28°C° 0 mm 5 m/S 766 mmHg 30%
    12:00 +29°C° 0 mm 5 m/S 766 mmHg 28%
    13:00 +30°C° 0 mm 6 m/S 765 mmHg 26%
    14:00 +29°C° 0 mm 6 m/S 765 mmHg 30%
    15:00 +29°C° 0 mm 6 m/S 764 mmHg 34%
    16:00 +28°C° 0 mm 6 m/S 763 mmHg 38%
    17:00 +26°C° 0 mm 6 m/S 764 mmHg 46%
    18:00 +23°C° 0 mm 6 m/S 764 mmHg 54%
    19:00 +21°C° 0 mm 6 m/S 764 mmHg 62%
    20:00 +20°C° 0 mm 6 m/S 764 mmHg 64%
    21:00 +19°C° 0 mm 5 m/S 764 mmHg 67%
    22:00 +19°C° 0 mm 4 m/S 764 mmHg 70%
    23:00 +18°C° 0 mm 4 m/S 764 mmHg 70%
    Mehr zeigen